Accueil
METAR-TAF:

METAR-TAF

Aéroports :

RAF

Holbeach, Angleterre

latitude: 52-52N, longitude: 000-09E, altitude: 3 m

Observation

Le bulletin a été fait il y a 3 heures et 22 minutes, à 14:50 UTC
Vent 18 kt de ouest/sud-ouest
Température 24°C
Humidité 61%
Pression 1014 hPa
Visibilité 10 km ou plus
Nuages épars à une hauteur de 3500 ft

METAR: EGYH 151450Z 24018KT 9999 SCT035 24/16 Q1014 BLU

Heure: 19:12 (18:12 UTC)


TAF: absent

Observations et prévisions météorologiques de plus de 4000 aéroports (messages METAR et TAF).

Les stations disponibles sont représentées par des disques jaunes et rouges sur la carte.

Passer la souris dessus pour voir le nom de la station.

Cliquer dessus pour voir les observations et prévisions météorologiques.

Pour changer de carte: cliquez sur les boutons verts avec une croix noire pour zoomer, sur le bouton vert avec un tiret pour effectuer un zoom arrière, ou sur les flèches vertes pour les cartes adjacentes.


METAR-TAF: